Regional Weather Roundup
Issued by NWS

Home | Current Version | Previous Version | Graphics & Text | Print | Product List | Glossary On
Versions: 1 2 3 4 5 6 7 8 9 10 11 12 13 14 15 16 17 18 19 20 21 22 23 24 25 26 27 28 29 30 31 32 33 34 35 36 37 38 39 40 41 42 43 44 45 46 47 48 49 50
413
ASUS43 KMKX 192021
RWRWI

WISCONSIN REGIONAL WEATHER ROUNDUP
NATIONAL WEATHER SERVICE MILWAUKEE/SULLIVAN WI
200 PM CST SUN FEB 19 2017

NOTE: "FAIR" INDICATES FEW OR NO CLOUDS BELOW 12,000 FEET WITH NO
SIGNIFICANT WEATHER AND/OR OBSTRUCTIONS TO VISIBILITY.

WIZ001-002-006>008-014>016-023>028-192100-
NORTHWEST WISCONSIN

CITY           SKY/WX    TMP DP  RH WIND       PRES   REMARKS
SUPERIOR ARPT  CLOUDY    38  32  78 E8G16     29.99R WCI  32
ASHLAND        MOSUNNY   42  33  70 N8        30.00R
HAYWARD        PTSUNNY   55  30  38 S8        29.97R
SIREN          PTSUNNY   58  32  37 SE8       29.94S
CUMBERLAND     CLOUDY    50  34  53 SE9       29.95F
RICE LAKE      CLOUDY    54  33  44 SE14      29.97S
CHETEK         CLOUDY    56  35  44 S12G17    29.97S
LADYSMITH      MOSUNNY   56  31  38 SE5       30.00S
EAU CLAIRE     SUNNY     59  32  36 S10       29.96S
MENOMONIE      SUNNY     58  37  46 E8        29.95F
NEW RICHMOND   MOSUNNY   55  37  51 SE8       29.94F
OSCEOLA        PTSUNNY   57  40  53 SE9       29.95F
$$

WIZ003>005-009-010-017-018-192100-
NORTH CENTRAL WISCONSIN

CITY           SKY/WX    TMP DP  RH WIND       PRES   REMARKS
MANITOWISH WTR MOSUNNY   51  27  38 S5        29.99R
ARBOR VITAE    MOSUNNY   53  29  40 S5        29.99R
WOODRUFF       MOSUNNY   53  29  40 S5        29.99R
RHINELANDER    MOSUNNY   56  27  32 NW3       30.00R
EAGLE RIVER    CLOUDY    52  26  37 CALM      29.99R
LAND O LAKES   MOSUNNY   53  24  31 CALM      30.01R
PHILLIPS       CLOUDY    55  28  34 S7        29.97F
TOMAHAWK       MOSUNNY   55  26  32 S3        30.00R
MEDFORD        SUNNY     48  33  55 S5        30.00R
MERRILL        NOT AVBL
$$

WIZ029-030-035-036-043>047-192100-
CENTRAL WISCONSIN

CITY           SKY/WX    TMP DP  RH WIND       PRES   REMARKS
WAUSAU         SUNNY     56  30  37 S3        29.99S
MOSINEE        PTSUNNY   54  32  43 S8        30.01F
MARSHFIELD     SUNNY     53  32  44 SE6       29.99S
STEVENS POINT  SUNNY     53  32  44 SE6       30.01F
WAUPACA        SUNNY     60  31  33 CALM      30.02F
WAUTOMA        SUNNY     60  34  37 S9        30.02S
WISC RAPIDS    CLOUDY    61  33  35 SW6       30.01F
CAMP DOUGLAS   PTSUNNY   61  32  33 SE10      29.99S
$$

WIZ011>013-019>022-031-037>040-048>050-192100-
NORTHEAST WISCONSIN

CITY           SKY/WX    TMP DP  RH WIND       PRES   REMARKS
ANTIGO         MOSUNNY   49  32  52 CALM      30.02S
SHAWANO        MOSUNNY   57  35  42 SE3       30.03S
OCONTO         MOSUNNY   50  31  47 SE6       30.03S
STURGEON BAY   SUNNY     50  32  50 E7        30.05S
GREEN BAY      SUNNY     56  38  50 S8        30.03S
MANITOWOC      SUNNY     49  33  54 MISG      30.05S
APPLETON       MOSUNNY   55  30  38 SE6       30.02S
CLINTONVILLE   CLOUDY    55  32  41 S5        30.02F
OSHKOSH        SUNNY     58  36  43 S6        30.03S
$$

WIZ032>034-041-042-053>061-192100-
SOUTHWEST WISCONSIN

CITY           SKY/WX    TMP DP  RH WIND       PRES   REMARKS
LA CROSSE      CLOUDY    60  36  40 S7        29.97F
SPARTA         MOSUNNY   63  34  34 S8        29.99S
VIROQUA        CLOUDY    58  37  44 CALM      29.98S
BOSCOBEL       SUNNY     65  36  34 S5        29.98F
PRAIRIE DU CHI CLOUDY    61  39  43 E8        29.97F
PLATTEVILLE    SUNNY     62  40  43 SE9       30.00F
$$

WIZ056-057-062-063-064-067-068-192100-
SOUTH CENTRAL WISCONSIN

CITY           SKY/WX    TMP DP  RH WIND       PRES   REMARKS
REEDSBURG      SUNNY     61  36  40 S3        30.00S
BARABOO/DELLS  SUNNY     60  35  38 SE8       30.00F
LONE ROCK      SUNNY     62  38  40 S8        30.00F
MINERAL POINT  SUNNY     63  41  45 S12       30.00F
MADISON        PTSUNNY   60  36  40 S10       30.02F
MIDDLETON      SUNNY     62  35  35 SE8       30.02S
WATERTOWN      SUNNY     62  32  32 S6        30.03S
MONROE         SUNNY     63  37  39 S7        30.01F
JANESVILLE     SUNNY     64  30  27 S8        30.02F
$$

WIZ051-052-058>065-066-070>072-192100-
SOUTHEAST WISCONSIN

CITY           SKY/WX    TMP DP  RH WIND       PRES   REMARKS
MILWAUKEE      MOSUNNY   54  31  41 E8        30.06S
WAUKESHA       SUNNY     63  27  25 SW6       30.04F
MILWAUKEE/TIMM SUNNY     59  27  29 E7        30.05S
RACINE         SUNNY     53  30  41 E8        30.07S
KENOSHA        SUNNY     58  32  37 SE8       30.05S
FOND DU LAC    SUNNY     59  32  36 S8        30.03S
SHEBOYGAN      SUNNY     55  34  45 SE8       30.04S
WEST BEND      SUNNY     63  30  29 S5        30.03F
JUNEAU         SUNNY     59  36  41 S5        30.04F
$$

LSZ147-162-192100-
LAKE SUPERIOR

STATION/POSITION TIME  TEMP    WIND        PRES    WAVE
                       AIR SEA DIR/SP/G            HT/PER
                 (UTC) (F)     (DEG/KT/KT) (MB)    (FT/S)
DEVILS ISLAND    2000   36      60/ 13/ 15 1017.0R
PORT WING        1940   36      30/ 14/ 16 1015.6R
SAXON HARBOR     1940   37     310/  2/  4 1015.9S
$$

LMZ867-665-643>646-192100-
LAKE MICHIGAN

STATION/POSITION TIME  TEMP    WIND        PRES    WAVE
                       AIR SEA DIR/SP/G            HT/PER
                 (UTC) (F)     (DEG/KT/KT) (MB)    (FT/S)
CHAMBERS ISLAND  1940   45      CALM  /  4 1017.3R
NORTHPORT PIER   1940   41        CALM     1017.6S
SISTER BAY       1905   52        CALM       N/A
KEWAUNEE LAKESHO 1954   45     130/  2/  6 1017.0F
SHEBOYGAN LAKESH 2000   44     120/  5/  5 1017.7S
PORT WASHINGTON  1940   48     100/  1/  2 1018.6S
MILWAUKEE LAKESH 2000   45      60/  3/  3   N/A
KENOSHA   LAKESH 2000   52        CALM     1017.9
$$

TC  - TEMPERATURE IN CELSIUS
VSB - VISIBILITY IN STATUTE MILES
WCI - WIND CHILL INDEX
HX  - HEAT INDEX





USA.gov is the U.S. government's official web portal to all federal, state and local government web resources and services.